Regional Weather Roundup
Issued by NWS Northern Indiana

Home | Current Version | Previous Version | Text Only | Print | Product List | Glossary On
Versions: 1 2 3 4 5 6 7 8 9 10 11 12 13 14 15 16 17 18 19 20 21 22 23 24 25 26 27 28 29 30 31 32 33 34 35 36 37 38 39 40 41 42 43 44 45 46 47 48 49 50
514
ASUS43 KIWX 271110
RWRIWX

KIWX WEATHER ROUNDUP
NATIONAL WEATHER SERVICE NORTHERN INDIANA
700 AM EDT TUE JUN 27 2017

NOTE: "FAIR" INDICATES FEW OR NO CLOUDS BELOW 12,000 FEET WITH NO
SIGNIFICANT WEATHER AND/OR OBSTRUCTIONS TO VISIBILITY.

* THESE STATIONS ARE NOT UNDER NWS QUALITY CONTROL. THEY ALSO MAY NOT
  REPORT WEATHER SUCH AS PRECIPITATION OR FOG.

INZ001>027-271200-
NORTHERN INDIANA

CITY           SKY/WX    TMP DP  RH WIND       PRES   REMARKS
GARY*          CLEAR     48  45  87 CALM      30.13R
VALPARAISO     CLEAR     53  47  79 W5        30.13R
MICHIGAN CITY* CLEAR     50  50 100 CALM      30.12R
LAPORTE*       CLEAR     48  47  97 CALM      30.13R
KNOX*          CLEAR     48  41  76 CALM      30.12S
SOUTH BEND     CLEAR     49  48  97 CALM      30.12R
ELKHART*       CLEAR     50  48  93 CALM      30.11
GOSHEN         CLEAR     50  46  86 W3        30.11R
MONTICELLO*    CLEAR     50  47  90 CALM      30.13R
LOGANSPORT*    CLEAR     50  46  87 CALM      30.14R
ROCHESTER*     CLEAR     54  48  82 CALM      30.13R
WARSAW*        CLEAR     48  46  93 W3        30.12R
AUBURN*        CLEAR     50  46  87 W5        30.10R
FORT WAYNE     PTCLDY    52  49  89 W5        30.11R
HUNTINGTON*    CLEAR     51  50  95 CALM      30.11R
PERU/GRISSOM   CLEAR     52  51  98 NW6       30.12R
MARION*        CLEAR     50  46  87 NW3       30.13R

$$
INZ028>050-271200-
CENTRAL INDIANA

CITY           SKY/WX    TMP DP  RH WIND       PRES   REMARKS
LAFAYETTE      FOG       48  48 100 CALM      30.14R VSB<1/4
KOKOMO*        PTCLDY    52  49  89 W5        30.13R
MUNCIE*        CLEAR     53  50  89 W5        30.12R
INDIANAPOLIS   CLEAR     52  49  89 W5        30.14R

$$
MIZ043>046-050>051-056>058-064>065-071>073-077>080-271200-
SOUTHWEST LOWER MICHIGAN

CITY           SKY/WX    TMP DP  RH WIND       PRES   REMARKS
BATTLE CREEK   CLEAR     47  47 100 W3        30.09R
BENTON HARBOR  CLEAR     50  47  89 CALM      30.09S
COLDWATER*     CLEAR     49  48  97 W3        30.09R
HILLSDALE*     CLEAR     48  46  93 W6        30.07R
HOLLAND        CLEAR     49  47  93 CALM      30.09R
GRAND RAPIDS   PTCLDY    50  50 100 W6        30.07R
KALAMAZOO      CLEAR     50  46  86 CALM      30.10R
STURGIS*       CLEAR     50  48  95 NW3       30.09R
THREE RIVERS*  FAIR      49  47  93 CALM      30.10R

$$
OHZ001>008-015>018-024>025-271200-
NORTHWEST OHIO

CITY           SKY/WX    TMP DP  RH WIND       PRES   REMARKS
WAUSEON*       FAIR      50  48  93 W7        30.07R
DEFIANCE       CLEAR     51  47  86 VRB3      30.09R
FINDLAY        PTCLDY    53  47  79 W7        30.07R
TOLEDO EXPRESS CLEAR     50  48  93 W8        30.06R
TOLEDO METCALF CLEAR     53  49  86 W8        30.07R
LIMA           PTCLDY    52  49  89 SW5       30.09R

$$
AND FOR LAKE MICHIGAN COASTAL AND OPEN LAKE BUOY OBSERVATIONS

STATION/POSITION TEMP    WIND        PRES    VSBY  WAVE
                 AIR SEA DIR/SP/G                  HT/PER
                 (F)     (DEG/KT/KT) (MB)    (MI)  (FT/S)
CALUMET HARBOR    55     200/  4/  5 1019.3R
MICHIGAN CITY     60     280/  6/  8   N/A
BURNS HARBOR      61     300/  7/  8 1020.0R
SOUTH LAKE BUOY   60 61  290/ 10/ 12 1018.6S         1/ 4
4 MI NW BRIDGMAN  61 69  330/  6/  8 1019.4          3/ 5
MICHIGAN CITY     61 65  300/  6/ 10   N/A           2/ 5

$$
&&




USA.gov is the U.S. government's official web portal to all federal, state and local government web resources and services.